Change the Weather History Date:

Saturday, September 15, 2012

  Actual Average Record
Temperature  
Mean Temperature 86 °F -  
Max Temperature 102 °F 100 °F 113 °F (2000)
Min Temperature 73 °F 73 °F 62 °F (2005)
Cooling Degree Days 22    
Growing Degree Days 36 (Base 50)    
Moisture  
Dew Point 42 °F    
Average Humidity 21    
Maximum Humidity 35    
Minimum Humidity 11    
Precipitation  
Precipitation 0.00 in - - ()
Sea Level Pressure  
Sea Level Pressure 29.97 in    
Wind  
Wind Speed 6 mph (NNE)    
Max Wind Speed 13 mph    
Max Gust Speed 17 mph    
Visibility 10 miles    
Events      
Averages and records for this station are not official NWS values.
T = Trace of Precipitation, MM = Missing Value Source: NWS Daily Summary

Daily Weather History Graph

Daily Weather History Graph

Search for Another Location

Airport or City:

Trip Planner

Search our weather history database for the weather conditions in past years. The results will help you decide how hot, cold, wet, or windy it might be!

Date:

Astronomy

Sep. 15, 2012 Rise Set
Actual Time 6:22 AM PDT 6:44 PM PDT
Civil Twilight 5:57 AM PDT 7:09 PM PDT
Nautical Twilight 5:28 AM PDT 7:38 PM PDT
Astronomical Twilight 4:58 AM PDT 8:08 PM PDT
Moon 5:56 AM PDT (9/15) 6:20 PM PDT (9/15)
Length of Visible Light 13h 11m
Length of Day
12h 21m
Waning Crescent, 0% of the Moon is Illuminated
Sep 15
Waning Crescent
Sep 15
New
Sep 22
First Quarter
Sep 29
Full
Oct 8
Last Quarter

Hourly Weather History & Observations

Time (PDT) Temp. Dew Point Humidity Pressure Visibility Wind Dir Wind Speed Gust Speed Precip Events Conditions
1:52 AM 77.0 °F 44.1 °F 31% 29.98 in 10.0 mi North 4.6 mph - N/A   Clear
2:52 AM 77.0 °F 44.1 °F 31% 29.98 in 10.0 mi NNW 6.9 mph - N/A   Clear
3:52 AM 73.0 °F 44.1 °F 35% 29.98 in 10.0 mi North 6.9 mph - N/A   Clear
4:52 AM 73.0 °F 43.0 °F 34% 29.98 in 10.0 mi North 6.9 mph - N/A   Clear
5:52 AM 73.0 °F 44.1 °F 35% 29.99 in 10.0 mi NNW 4.6 mph - N/A   Clear
7:52 AM 82.9 °F 45.0 °F 26% 30.03 in 10.0 mi NNE 5.8 mph - N/A   Clear
8:52 AM 89.1 °F 46.0 °F 22% 30.04 in 10.0 mi ENE 5.8 mph - N/A   Clear
9:52 AM 90.0 °F 46.0 °F 22% 30.05 in 10.0 mi ENE 6.9 mph - N/A   Clear
10:52 AM 93.9 °F 45.0 °F 18% 30.04 in 10.0 mi NE 6.9 mph - N/A   Clear
11:52 AM 96.1 °F 44.1 °F 17% 30.02 in 10.0 mi NE 8.1 mph - N/A   Clear
12:52 PM 98.1 °F 43.0 °F 15% 30.00 in 10.0 mi ENE 8.1 mph - N/A   Clear
1:52 PM 100.0 °F 39.0 °F 12% 29.97 in 10.0 mi ENE 12.7 mph 17.3 mph N/A   Clear
2:52 PM 100.0 °F 37.0 °F 11% 29.94 in 10.0 mi NE 8.1 mph 17.3 mph N/A   Clear
3:52 PM 100.9 °F 37.0 °F 11% 29.92 in 10.0 mi NE 11.5 mph 16.1 mph N/A   Clear
4:52 PM 100.0 °F 37.0 °F 11% 29.91 in 10.0 mi NE 6.9 mph - N/A   Clear
5:52 PM 99.0 °F 36.0 °F 11% 29.90 in 10.0 mi NE 5.8 mph - N/A   Clear
6:52 PM 93.9 °F 39.0 °F 15% 29.90 in 10.0 mi NNE 4.6 mph - N/A   Clear
7:52 PM 93.0 °F 39.0 °F 15% 29.91 in 10.0 mi Calm Calm - N/A   Clear
8:52 PM 89.1 °F 41.0 °F 19% 29.91 in 10.0 mi Calm Calm - N/A   Clear
9:52 PM 86.0 °F 42.1 °F 21% 29.93 in 10.0 mi South 3.5 mph - N/A   Clear
10:52 PM 81.0 °F 43.0 °F 26% 29.94 in 10.0 mi Calm Calm - N/A   Clear
11:52 PM 80.1 °F 44.1 °F 28% 29.94 in 10.0 mi Calm Calm - N/A   Clear